Weather History for KBMI - August, 2012

Change the Weather History Date:

Wednesday, August 8, 2012

  Actual Average Record
Temperature  
Mean Temperature 75 °F -  
Max Temperature 86 °F 88 °F 91 °F (2001)
Min Temperature 66 °F 62 °F 55 °F (2002)
Cooling Degree Days 10    
Growing Degree Days 25 (Base 50)    
Moisture  
Dew Point 65 °F    
Average Humidity 73    
Maximum Humidity 100    
Minimum Humidity 51    
Precipitation  
Precipitation 0.02 in - - ()
Sea Level Pressure  
Sea Level Pressure 29.94 in    
Wind  
Wind Speed 6 mph (North)    
Max Wind Speed 17 mph    
Max Gust Speed -    
Visibility 10 miles    
Events Rain    
Averages and records for this station are not official NWS values.
T = Trace of Precipitation, MM = Missing Value Source: NWS Daily Summary

Daily Weather History Graph

Daily Weather History Graph

Search for Another Location

Airport or City:

Trip Planner

Search our weather history database for the weather conditions in past years. The results will help you decide how hot, cold, wet, or windy it might be!

Date:

Astronomy

Aug. 08, 2012 Rise Set
Actual Time 6:00 AM CDT 8:01 PM CDT
Civil Twilight 5:30 AM CDT 8:31 PM CDT
Nautical Twilight 4:53 AM CDT 9:07 PM CDT
Astronomical Twilight 4:13 AM CDT 9:47 PM CDT
Moon 11:14 PM CDT (8/8) 12:47 PM CDT (8/8)
Length of Visible Light 15h 01m
Length of Day
14h 01m
Waning Gibbous, 60% of the Moon is Illuminated
Aug 8
Waning Gibbous
Aug 9
Last Quarter
Aug 17
New
Aug 24
First Quarter
Aug 31
Full

Hourly Weather History & Observations

Time (CDT) Temp. Heat Index Dew Point Humidity Pressure Visibility Wind Dir Wind Speed Gust Speed Precip Events Conditions
12:56 AM 75.9 °F - 61.0 °F 60% 29.93 in 10.0 mi WSW 5.8 mph - N/A   Clear
1:56 AM 74.8 °F - 61.0 °F 62% 29.93 in 10.0 mi WSW 6.9 mph - N/A   Clear
2:56 AM 72.0 °F - 61.9 °F 70% 29.92 in 10.0 mi SW 5.8 mph - N/A   Clear
3:56 AM 72.9 °F - 61.9 °F 68% 29.93 in 10.0 mi WSW 4.6 mph - N/A   Clear
4:56 AM 72.9 °F - 61.9 °F 68% 29.92 in 10.0 mi WSW 3.5 mph - N/A   Clear
5:56 AM 70.9 °F - 61.0 °F 71% 29.93 in 10.0 mi Calm Calm - N/A   Clear
6:56 AM 74.8 °F - 63.0 °F 66% 29.93 in 10.0 mi North 3.5 mph - N/A   Clear
7:56 AM 77.9 °F - 63.0 °F 60% 29.95 in 10.0 mi Calm Calm - N/A   Clear
8:56 AM 79.0 °F - 63.9 °F 60% 29.95 in 10.0 mi East 3.5 mph - N/A   Clear
9:56 AM 84.9 °F 86.6 °F 64.9 °F 51% 29.94 in 10.0 mi Variable 4.6 mph - N/A   Clear
10:56 AM 79.0 °F - 66.9 °F 66% 30.00 in 5.0 mi NW 17.3 mph - 0.00 in Rain Rain
11:56 AM 74.8 °F - 66.9 °F 76% 29.98 in 10.0 mi NE 5.8 mph - 0.01 in   Partly Cloudy
12:56 PM 77.9 °F - 68.9 °F 74% 29.96 in 10.0 mi WNW 3.5 mph - N/A   Partly Cloudy
1:56 PM 83.8 °F 85.6 °F 64.9 °F 53% 29.96 in 10.0 mi North 6.9 mph - N/A   Clear
2:56 PM 79.9 °F - 66.9 °F 64% 29.97 in 10.0 mi NW 11.5 mph - 0.00 in Rain Light Rain
3:56 PM 77.0 °F - 65.8 °F 68% 29.96 in 10.0 mi North 9.2 mph - 0.00 in Rain Light Rain
4:56 PM 72.9 °F - 70.0 °F 91% 29.95 in 10.0 mi ESE 5.8 mph - 0.01 in Rain Light Rain
6:56 PM 75.9 °F - 64.9 °F 69% 29.91 in 10.0 mi South 3.5 mph - N/A   Clear
7:57 PM 73.9 °F - 68.9 °F 84% 29.91 in 10.0 mi East 4.6 mph - N/A   Clear
8:56 PM 70.0 °F - 68.9 °F 96% 29.92 in 10.0 mi NE 5.8 mph - N/A   Clear
9:56 PM 68.0 °F - 68.0 °F 100% 29.91 in 10.0 mi NE 6.9 mph - N/A   Clear
10:56 PM 66.9 °F - 66.9 °F 100% 29.92 in 10.0 mi ENE 8.1 mph - N/A   Clear
11:56 PM 66.9 °F - 66.9 °F 100% 29.92 in 4.0 mi ENE 5.8 mph - N/A   Clear